| time (UTC) | temp C | wind direction | speed KPH | gust KPH | rain 1hr cm | rain 24hr cm | rain mn cm | humidity % | barometer mb |
| 20260508131537 | 14 | 246 | 9.7 | 19.3 | 0.00 | 0.05 | 0.03 | 56 | 1004.9 |
| 20260508130040 | 13 | 246 | 11.3 | 22.5 | 0.00 | 0.05 | 0.03 | 57 | 1004.8 |
| 20260508124538 | 13 | 246 | 3.2 | 16.1 | 0.00 | 0.05 | 0.03 | 65 | 1004.8 |
| 20260508123038 | 13 | 246 | 3.2 | 14.5 | 0.00 | 0.05 | 0.03 | 66 | 1004.8 |
| 20260508121540 | 12 | 246 | 3.2 | 14.5 | 0.00 | 0.05 | 0.03 | 71 | 1004.9 |
| 20260508120042 | 11 | 246 | 4.8 | 16.1 | 0.00 | 0.05 | 0.03 | 73 | 1004.8 |
| 20260508114548 | 11 | 246 | 3.2 | 16.1 | 0.00 | 0.05 | 0.03 | 78 | 1005.0 |
| 20260508113040 | 10 | 246 | 4.8 | 17.7 | 0.00 | 0.05 | 0.03 | 81 | 1005.0 |
| 20260508111542 | 8 | 246 | 6.4 | 16.1 | 0.00 | 0.05 | 0.03 | 83 | 1005.1 |
| 20260508110037 | 8 | 246 | 6.4 | 16.1 | 0.00 | 0.05 | 0.03 | 85 | 1004.9 |
| 20260508104536 | 8 | 246 | 6.4 | 16.1 | 0.00 | 0.05 | 0.03 | 87 | 1004.9 |
| 20260508103040 | 7 | 246 | 6.4 | 14.5 | 0.00 | 0.05 | 0.03 | 89 | 1004.8 |
| 20260508101538 | 7 | 246 | 4.8 | 16.1 | 0.00 | 0.05 | 0.03 | 89 | 1004.7 |
| 20260508100037 | 7 | 246 | 4.8 | 14.5 | 0.00 | 0.05 | 0.03 | 89 | 1004.4 |
| 20260508094553 | 7 | 246 | 3.2 | 12.9 | 0.00 | 0.05 | 0.03 | 89 | 1004.3 |
| 20260508093043 | 6 | 0 | 3.2 | 9.7 | 0.00 | 0.05 | 0.03 | 90 | 1003.9 |
| 20260508091543 | 6 | 246 | 3.2 | 12.9 | 0.00 | 0.05 | 0.03 | 90 | 1003.9 |
| 20260508090043 | 6 | 246 | 6.4 | 14.5 | 0.00 | 0.05 | 0.03 | 90 | 1003.6 |
| 20260508084538 | 6 | 246 | 6.4 | 16.1 | 0.00 | 0.05 | 0.03 | 91 | 1003.6 |
| 20260508083036 | 6 | 246 | 6.4 | 14.5 | 0.03 | 0.05 | 0.03 | 90 | 1003.6 |
| 20260508081558 | 6 | 246 | 6.4 | 17.7 | 0.03 | 0.05 | 0.03 | 90 | 1003.9 |
| 20260508080038 | 6 | 246 | 6.4 | 16.1 | 0.03 | 0.05 | 0.03 | 90 | 1003.9 |
| 20260508074538 | 6 | 246 | 9.7 | 20.9 | 0.03 | 0.05 | 0.03 | 90 | 1003.8 |
| 20260508073041 | 6 | 246 | 8.0 | 24.1 | 0.00 | 0.03 | 0.00 | 91 | 1003.8 |
| 20260508071544 | 6 | 246 | 8.0 | 22.5 | 0.00 | 0.03 | 0.00 | 91 | 1003.9 |
| 20260508070042 | 6 | 246 | 8.0 | 17.7 | 0.00 | 0.03 | 0.00 | 91 | 1003.9 |
| 20260508064538 | 5 | 246 | 6.4 | 16.1 | 0.00 | 0.03 | 0.00 | 91 | 1004.0 |
| 20260508063047 | 5 | 246 | 6.4 | 16.1 | 0.00 | 0.03 | 0.00 | 91 | 1004.1 |
| 20260508061541 | 6 | 246 | 6.4 | 16.1 | 0.00 | 0.03 | 0.00 | 90 | 1004.3 |
| 20260508060037 | 6 | 246 | 8.0 | 19.3 | 0.00 | 0.03 | 0.00 | 90 | 1004.2 |
| 20260508054539 | 6 | 246 | 4.8 | 16.1 | 0.00 | 0.03 | 0.00 | 89 | 1004.2 |
| 20260508053040 | 6 | 246 | 8.0 | 22.5 | 0.00 | 0.03 | 0.00 | 89 | 1004.2 |
| 20260508051538 | 6 | 246 | 6.4 | 16.1 | 0.00 | 0.03 | 0.00 | 89 | 1004.3 |
| 20260508050037 | 6 | 246 | 4.8 | 12.9 | 0.00 | 0.03 | 0.00 | 89 | 1004.8 |
| 20260508044535 | 6 | 246 | 4.8 | 12.9 | 0.00 | 0.03 | 0.00 | 88 | 1004.3 |
| 20260508043041 | 7 | 246 | 4.8 | 14.5 | 0.00 | 0.03 | 0.00 | 88 | 1004.7 |
| 20260508041538 | 7 | 246 | 3.2 | 12.9 | 0.00 | 0.03 | 0.00 | 88 | 1004.7 |
| 20260508040045 | 7 | 246 | 3.2 | 8.0 | 0.00 | 0.03 | 0.00 | 88 | 1005.1 |
| 20260508034537 | 7 | 246 | 1.6 | 9.7 | 0.00 | 0.03 | 0.00 | 87 | 1005.2 |
| 20260508033036 | 7 | 246 | 3.2 | 8.0 | 0.00 | 0.03 | 0.00 | 87 | 1005.3 |
| 20260508031536 | 8 | 246 | 3.2 | 9.7 | 0.00 | 0.03 | 0.00 | 87 | 1004.9 |
| 20260508030039 | 8 | 246 | 3.2 | 9.7 | 0.00 | 0.03 | 0.00 | 87 | 1004.6 |
| 20260508024547 | 8 | 246 | 3.2 | 9.7 | 0.00 | 0.03 | 0.03 | 87 | 1004.8 |
| 20260508023037 | 8 | 246 | 4.8 | 12.9 | 0.00 | 0.03 | 0.03 | 87 | 1005.0 |
| 20260508021536 | 9 | 246 | 3.2 | 9.7 | 0.00 | 0.03 | 0.03 | 88 | 1005.0 |
| 20260508020035 | 9 | 246 | 0.0 | 6.4 | 0.00 | 0.03 | 0.03 | 88 | 1005.2 |
| 20260508014545 | 10 | 0 | 1.6 | 14.5 | 0.00 | 0.03 | 0.03 | 87 | 1005.3 |
| 20260508013045 | 10 | 246 | 1.6 | 8.0 | 0.00 | 0.03 | 0.03 | 88 | 1005.4 |
| 20260508011538 | 10 | 246 | 3.2 | 9.7 | 0.00 | 0.03 | 0.03 | 88 | 1005.2 |
| 20260508010037 | 10 | 246 | 0.0 | 9.7 | 0.00 | 0.03 | 0.03 | 88 | 1005.1 |
| 20260508004536 | 9 | 246 | 0.0 | 6.4 | 0.00 | 0.03 | 0.03 | 89 | 1005.0 |
| 20260508003036 | 10 | 0 | 0.0 | 0.0 | 0.00 | 0.03 | 0.03 | 90 | 1004.9 |
| 20260508001536 | 10 | 0 | 0.0 | 0.0 | 0.00 | 0.03 | 0.03 | 89 | 1004.5 |
| 20260508000042 | 10 | 0 | 0.0 | 3.2 | 0.00 | 0.03 | 0.03 | 87 | 1004.3 |
| 20260507234538 | 11 | 246 | 1.6 | 4.8 | 0.00 | 0.03 | 0.03 | 84 | 1004.1 |
| 20260507233043 | 12 | 0 | 0.0 | 4.8 | 0.00 | 0.03 | 0.03 | 79 | 1003.8 |
| 20260507231539 | 12 | 0 | 0.0 | 9.7 | 0.00 | 0.03 | 0.03 | 75 | 1003.8 |
| 20260507230044 | 13 | 246 | 4.8 | 12.9 | 0.00 | 0.03 | 0.03 | 75 | 1003.6 |
| 20260507224542 | 13 | 0 | 3.2 | 8.0 | 0.00 | 0.03 | 0.03 | 77 | 1003.6 |
| 20260507223040 | 14 | 246 | 4.8 | 17.7 | 0.00 | 0.03 | 0.03 | 75 | 1003.5 |
| 20260507221540 | 15 | 246 | 4.8 | 14.5 | 0.00 | 0.03 | 0.03 | 75 | 1003.4 |
| 20260507220037 | 15 | 246 | 8.0 | 20.9 | 0.00 | 0.03 | 0.03 | 74 | 1003.1 |
| 20260507214541 | 16 | 246 | 3.2 | 14.5 | 0.00 | 0.03 | 0.03 | 75 | 1003.4 |
| 20260507213043 | 16 | 246 | 6.4 | 17.7 | 0.00 | 0.03 | 0.03 | 75 | 1003.6 |
| 20260507211543 | 16 | 246 | 9.7 | 20.9 | 0.00 | 0.03 | 0.03 | 77 | 1003.7 |
| 20260507210040 | 15 | 246 | 4.8 | 19.3 | 0.00 | 0.03 | 0.03 | 84 | 1003.5 |
| 20260507204537 | 15 | 246 | 6.4 | 14.5 | 0.00 | 0.03 | 0.03 | 89 | 1003.4 |
| 20260507203045 | 14 | 0 | 4.8 | 12.9 | 0.00 | 0.03 | 0.03 | 92 | 1003.6 |
| 20260507201537 | 13 | 246 | 4.8 | 14.5 | 0.00 | 0.03 | 0.03 | 97 | 1003.5 |
| 20260507200059 | 13 | 0 | 0.0 | 16.1 | 0.00 | 0.03 | 0.03 | 98 | 1003.6 |
| 20260507194542 | 13 | 0 | 0.0 | 12.9 | 0.00 | 0.03 | 0.03 | 98 | 1003.9 |
| 20260507193045 | 12 | 246 | 4.8 | 16.1 | 0.00 | 0.03 | 0.03 | 98 | 1003.8 |
| 20260507191538 | 12 | 246 | 3.2 | 8.0 | 0.00 | 0.03 | 0.03 | 98 | 1003.6 |
| 20260507190037 | 12 | 246 | 3.2 | 12.9 | 0.00 | 0.03 | 0.03 | 98 | 1003.9 |
| 20260507184539 | 12 | 246 | 4.8 | 12.9 | 0.00 | 0.03 | 0.03 | 98 | 1004.1 |
| 20260507183046 | 11 | 0 | 0.0 | 12.9 | 0.00 | 0.03 | 0.03 | 98 | 1004.0 |
| 20260507181542 | 11 | 0 | 1.6 | 9.7 | 0.00 | 0.03 | 0.03 | 98 | 1003.9 |
| 20260507180045 | 11 | 246 | 1.6 | 14.5 | 0.00 | 0.03 | 0.03 | 98 | 1004.1 |
| 20260507174539 | 11 | 246 | 4.8 | 9.7 | 0.00 | 0.03 | 0.03 | 98 | 1004.3 |
| 20260507173037 | 11 | 246 | 4.8 | 9.7 | 0.00 | 0.03 | 0.03 | 98 | 1004.1 |
| 20260507171536 | 10 | 246 | 3.2 | 9.7 | 0.00 | 0.03 | 0.03 | 98 | 1004.5 |
| 20260507170043 | 10 | 246 | 8.0 | 12.9 | 0.00 | 0.03 | 0.03 | 98 | 1003.8 |
| 20260507164556 | 10 | 246 | 1.6 | 6.4 | 0.00 | 0.03 | 0.03 | 98 | 1004.7 |
| 20260507163039 | 10 | 246 | 3.2 | 9.7 | 0.00 | 0.03 | 0.03 | 98 | 1004.5 |
| 20260507161539 | 10 | 246 | 3.2 | 6.4 | 0.00 | 0.03 | 0.03 | 98 | 1004.7 |
| 20260507160039 | 10 | 0 | 0.0 | 8.0 | 0.00 | 0.03 | 0.03 | 98 | 1004.8 |
| 20260507154540 | 10 | 246 | 1.6 | 9.7 | 0.00 | 0.03 | 0.03 | 98 | 1005.5 |
| 20260507153042 | 9 | 0 | 1.6 | 6.4 | 0.00 | 0.03 | 0.03 | 98 | 1005.1 |
| 20260507151540 | 9 | 246 | 4.8 | 12.9 | 0.00 | 0.03 | 0.03 | 98 | 1005.4 |
| 20260507150038 | 9 | 246 | 6.4 | 9.7 | 0.00 | 0.03 | 0.03 | 98 | 1005.0 |
| 20260507144537 | 10 | 246 | 3.2 | 4.8 | 0.00 | 0.03 | 0.03 | 98 | 1006.0 |
| 20260507143038 | 10 | 246 | 1.6 | 4.8 | 0.00 | 0.03 | 0.03 | 98 | 1006.2 |
| 20260507141539 | 10 | 246 | 1.6 | 12.9 | 0.03 | 0.03 | 0.03 | 98 | 1005.9 |
| 20260507140044 | 10 | 246 | 8.0 | 19.3 | 0.03 | 0.03 | 0.03 | 98 | 1006.6 |
| 20260507134541 | 10 | 246 | 3.2 | 17.7 | 0.03 | 0.05 | 0.03 | 98 | 1006.0 |
| 20260507133055 | 10 | 246 | 6.4 | 17.7 | 0.03 | 0.05 | 0.03 | 98 | 1006.4 |